Location: *
(46.0770°N, 1.6444°E)
Time: 13:27:27
(UTC+00:00)

Cosmos 2322 Rocket - Pass Details

Date: 16 September 2019
Orbit: 834 x 849 km, 71.0° (Epoch: 16 October)

Event Time Altitude Azimuth Distance (km) Brightness Sun altitude
Rises 18:45:48 0° 325° (NW) 3,392 6.2 -8.1°
Reaches altitude 10° 18:48:31 10° 314° (NW) 2,453 5.6 -8.5°
Maximum altitude 18:53:17 29° 256° (WSW) 1,478 4.3 -9.3°
Drops below altitude 10° 18:58:02 10° 198° (SSW) 2,439 4.7 -10.1°
Sets 19:00:44 0° 187° (S) 3,370 5.3 -10.6°
